This is the latest recevied weather packets stored in our database for station/object N5PRN. If no packets are shown the sender has not sent any weather packets the latest 1 day(s).
| Time | Temp. | Humidity | Pressure | Rain* | Wind** | Luminosity | Snow |
|---|---|---|---|---|---|---|---|
| 1777990730 | 20.56° C | 91% | 1011 hPa | 0 mm | 0 m/s | 168 W/m² | - |
| 1777990428 | 20° C | 91% | 1011.1 hPa | 0 mm | 0.89 m/s, 239° | 81 W/m² | - |
| 1777990124 | 20° C | 90% | 1011.1 hPa | 0 mm | 0.89 m/s, 212° | 98 W/m² | - |
| 1777989820 | 20° C | 91% | 1010.9 hPa | 0 mm | 0 m/s | 89 W/m² | - |
| 1777989518 | 20° C | 91% | 1010.8 hPa | 0 mm | 0.89 m/s, 189° | 105 W/m² | - |
| 1777989214 | 20° C | 91% | 1010.6 hPa | 0 mm | 1.34 m/s, 218° | 95 W/m² | - |
| 1777988910 | 20° C | 91% | 1010.9 hPa | 0 mm | 1.34 m/s, 183° | 65 W/m² | - |
| 1777988607 | 20° C | 91% | 1010.6 hPa | 0 mm | 0 m/s | 84 W/m² | - |
| 1777988304 | 20° C | 91% | 1010.5 hPa | 0 mm | 0.45 m/s, 219° | 86 W/m² | - |
| 1777988000 | 19.44° C | 91% | 1010.5 hPa | 0 mm | 0.45 m/s, 236° | 75 W/m² | - |
| 1777987696 | 19.44° C | 91% | 1010.8 hPa | 0 mm | 0 m/s | 67 W/m² | - |
| 1777987394 | 19.44° C | 90% | 1010.8 hPa | 0 mm | 1.34 m/s, 223° | 87 W/m² | - |
| 1777987091 | 19.44° C | 91% | 1010.7 hPa | 0 mm | 0.89 m/s, 236° | 79 W/m² | - |
| 1777986788 | 19.44° C | 91% | 1010.6 hPa | 0 mm | 0.45 m/s, 213° | 64 W/m² | - |
| 1777986486 | 19.44° C | 90% | 1010.9 hPa | 0 mm | 2.24 m/s, 224° | 54 W/m² | - |
| 1777986186 | 19.44° C | 90% | 1011 hPa | 0 mm | 0.45 m/s, 214° | 58 W/m² | - |
| 1777985881 | 19.44° C | 91% | 1010.7 hPa | 0 mm | 0.45 m/s, 204° | 69 W/m² | - |
| 1777985578 | 19.44° C | 90% | 1011 hPa | 0 mm | 0.89 m/s, 178° | 60 W/m² | - |
| 1777985274 | 19.44° C | 90% | 1010.5 hPa | 0 mm | 0.45 m/s, 205° | 52 W/m² | - |
| 1777984971 | 18.89° C | 90% | 1010.7 hPa | 0 mm | 0.89 m/s, 241° | 60 W/m² | - |
| 1777984666 | 18.89° C | 90% | 1010.8 hPa | 0 mm | 1.34 m/s, 165° | 42 W/m² | - |
| 1777984363 | 18.89° C | 90% | 1011 hPa | 0 mm | 0.89 m/s, 214° | 39 W/m² | - |
| 1777984060 | 18.89° C | 90% | 1010.7 hPa | 0 mm | 0 m/s | 52 W/m² | - |
| 1777983757 | 18.89° C | 90% | 1010.4 hPa | 0 mm | 1.34 m/s, 257° | 27 W/m² | - |
| 1777983454 | 18.89° C | 90% | 1010.4 hPa | 0 mm | 1.79 m/s, 211° | 29 W/m² | - |
* Rain latest hour (hover to see other rain measurements)
** Current wind speed in m/s (hover to see current wind gust speed)